Location: *
(48.8489°N, 2.3218°E)
Time: 08:03:25
(UTC+00:00)

Cosmos 1980 Rocket - Pass Details

Date: 23 August 2019
Orbit: 829 x 850 km, 71.0° (Epoch: 16 September)

Event Time Altitude Azimuth Distance (km) Brightness Sun altitude
Rises 22:11:12 0° 325° (NW) 3,394 6.7 -25.8°
Reaches altitude 10° 22:13:49 10° 317° (NW) 2,459 5.6 -26.0°
Maximum altitude 22:18:52 35° 254° (WSW) 1,329 3.2 -26.3°
Enters shadow 22:19:46 33° 234° (SW) 1,380 3.2 -26.4°
